User: anonymous   Login
Location: Famechon
(49.7599°N, 2.0615°E)
Time: 23:11:00
(UTC+00:00)
Language:

Cosmos 1741 Rocket - Orbit

View from above orbital plane
View from above orbital plane
View from above satellite
View from above satellite

Ground track
Ground track

The orbit data is extracted from the following two-line orbital elements,

1 16682U 86030B   24151.61042656  .00000378  00000-0  13728-3 0  9995
2 16682  74.0258 241.5170 0015424 320.7634 142.1096 14.36611195995386
Epoch (UTC): 30 May 2024 14:39:00
Eccentricity: 0.0015424
inclination: 74.0258°
perigee height: 758 km
apogee height: 781 km
right ascension of ascending node: 241.5170°
argument of perigee: 320.7634°
revolutions per day: 14.36611195
mean anomaly at epoch: 142.1096°
orbit number at epoch: 99538

The dashed part of the orbit path shows where the satellite is in the earth's shadow,  

DLR